Location: Bijele Vode
(45.2833°N, 16.2000°E)
Time: 14:22:51
(UTC+00:00)

ARGOS - Pass Details

Date: 18 September 2020
Orbit: 821 x 834 km, 98.4° (Epoch: 30 October)

Event Time Altitude Azimuth Distance (km) Brightness Sun altitude
Rises 17:32:54 0° 145° (SE) 3,342 5.9 -6.6°
Reaches altitude 10° 17:35:19 10° 139° (SE) 2,414 5.1 -7.0°
Maximum altitude 17:40:21 44° 69° (ENE) 1,121 3.5 -7.9°
Drops below altitude 10° 17:45:27 10° 358° (N) 2,435 5.8 -8.8°
Sets 17:47:54 0° 352° (N) 3,374 6.6 -9.2°
